Year,Month,Day,Hour,Minute,Value (Times are PST for temperature in C)
2016,03,30,00,00,7.80
2016,03,30,00,01,7.80
2016,03,30,00,02,7.80
2016,03,30,00,03,7.80
2016,03,30,00,04,7.70
2016,03,30,00,05,7.70
2016,03,30,00,06,7.70
2016,03,30,00,07,7.60
2016,03,30,00,08,7.60
2016,03,30,00,09,7.60
2016,03,30,00,10,7.50
2016,03,30,00,11,7.50
2016,03,30,00,12,7.50
2016,03,30,00,13,7.50
2016,03,30,00,14,7.50
2016,03,30,00,15,7.50
2016,03,30,00,16,7.50
2016,03,30,00,17,7.50
2016,03,30,00,18,7.50
2016,03,30,00,19,7.50
2016,03,30,00,20,7.50
2016,03,30,00,21,7.60
2016,03,30,00,22,7.60
2016,03,30,00,23,7.60
2016,03,30,00,24,7.70
2016,03,30,00,25,7.70
2016,03,30,00,26,7.70
2016,03,30,00,27,7.70
2016,03,30,00,28,7.70
2016,03,30,00,29,7.70
2016,03,30,00,30,7.70
2016,03,30,00,31,7.70
2016,03,30,00,32,7.70
2016,03,30,00,33,7.70
2016,03,30,00,34,7.70
2016,03,30,00,35,7.70
2016,03,30,00,36,7.70
2016,03,30,00,37,7.70
2016,03,30,00,38,7.80
2016,03,30,00,39,7.80
2016,03,30,00,40,7.80
2016,03,30,00,41,7.80
2016,03,30,00,42,7.80
2016,03,30,00,43,7.80
2016,03,30,00,44,7.80
2016,03,30,00,45,7.80
2016,03,30,00,46,7.80
2016,03,30,00,47,7.80
2016,03,30,00,48,7.80
2016,03,30,00,49,7.70
2016,03,30,00,50,7.70
2016,03,30,00,51,7.60
2016,03,30,00,52,7.50
2016,03,30,00,53,7.50
2016,03,30,00,54,7.40
2016,03,30,00,55,7.30
2016,03,30,00,56,7.30
2016,03,30,00,57,7.30
2016,03,30,00,58,7.20
2016,03,30,00,59,7.20
2016,03,30,01,00,7.10
2016,03,30,01,01,7.10
2016,03,30,01,02,7.00
2016,03,30,01,03,7.00
2016,03,30,01,04,6.90
2016,03,30,01,05,6.90
2016,03,30,01,06,6.90
2016,03,30,01,07,6.80
2016,03,30,01,08,6.80
2016,03,30,01,09,6.80
2016,03,30,01,10,6.80
2016,03,30,01,11,6.80
2016,03,30,01,12,6.80
2016,03,30,01,13,6.70
2016,03,30,01,14,6.70
2016,03,30,01,15,6.70
2016,03,30,01,16,6.70
2016,03,30,01,17,6.70
2016,03,30,01,18,6.70
2016,03,30,01,19,6.70
2016,03,30,01,20,6.70
2016,03,30,01,21,6.70
2016,03,30,01,22,6.70
2016,03,30,01,23,6.70
2016,03,30,01,24,6.70
2016,03,30,01,25,6.70
2016,03,30,01,26,6.70
2016,03,30,01,27,6.70
2016,03,30,01,28,6.70
2016,03,30,01,29,6.70
2016,03,30,01,30,6.70
2016,03,30,01,31,6.70
2016,03,30,01,32,6.70
2016,03,30,01,33,6.70
2016,03,30,01,34,6.70
2016,03,30,01,35,6.70
2016,03,30,01,36,6.80
2016,03,30,01,37,6.80
2016,03,30,01,38,6.80
2016,03,30,01,39,6.80
2016,03,30,01,40,6.80
2016,03,30,01,41,6.80
2016,03,30,01,42,6.80
2016,03,30,01,43,6.80
2016,03,30,01,44,6.80
2016,03,30,01,45,6.80
2016,03,30,01,46,6.70
2016,03,30,01,47,6.70
2016,03,30,01,48,6.70
2016,03,30,01,49,6.60
2016,03,30,01,50,6.60
2016,03,30,01,51,6.60
2016,03,30,01,52,6.60
2016,03,30,01,53,6.60
2016,03,30,01,54,6.60
2016,03,30,01,55,6.50
2016,03,30,01,56,6.40
2016,03,30,01,57,6.40
2016,03,30,01,58,6.40
2016,03,30,01,59,6.40
2016,03,30,02,00,6.40
2016,03,30,02,01,6.30
2016,03,30,02,02,6.30
2016,03,30,02,03,6.30
2016,03,30,02,04,6.30
2016,03,30,02,05,6.30
2016,03,30,02,06,6.20
2016,03,30,02,07,6.30
2016,03,30,02,08,6.30
2016,03,30,02,09,6.30
2016,03,30,02,10,6.30
2016,03,30,02,11,6.30
2016,03,30,02,12,6.40
2016,03,30,02,13,6.40
2016,03,30,02,14,6.50
2016,03,30,02,15,6.60
2016,03,30,02,16,6.60
2016,03,30,02,17,6.60
2016,03,30,02,18,6.70
2016,03,30,02,19,6.70
2016,03,30,02,20,6.70
2016,03,30,02,21,6.70
2016,03,30,02,22,6.70
2016,03,30,02,23,6.80
2016,03,30,02,24,6.80
2016,03,30,02,25,6.80
2016,03,30,02,26,6.80
2016,03,30,02,27,6.80
2016,03,30,02,28,6.80
2016,03,30,02,29,6.70
2016,03,30,02,30,6.70
2016,03,30,02,31,6.70
2016,03,30,02,32,6.70
2016,03,30,02,33,6.70
2016,03,30,02,34,6.60
2016,03,30,02,35,6.60
2016,03,30,02,36,6.60
2016,03,30,02,37,6.60
2016,03,30,02,38,6.60
2016,03,30,02,39,6.60
2016,03,30,02,40,6.60
2016,03,30,02,41,6.60
2016,03,30,02,42,6.50
2016,03,30,02,43,6.40
2016,03,30,02,44,6.40
2016,03,30,02,45,6.40
2016,03,30,02,46,6.40
2016,03,30,02,47,6.40
2016,03,30,02,48,6.40
2016,03,30,02,49,6.40
2016,03,30,02,50,6.30
2016,03,30,02,51,6.30
2016,03,30,02,52,6.30
2016,03,30,02,53,6.20
2016,03,30,02,54,6.20
2016,03,30,02,55,6.20
2016,03,30,02,56,6.20
2016,03,30,02,57,6.20
2016,03,30,02,58,6.20
2016,03,30,02,59,6.10
2016,03,30,03,00,6.10
2016,03,30,03,01,6.10
2016,03,30,03,02,6.10
2016,03,30,03,03,6.10
2016,03,30,03,04,6.10
2016,03,30,03,05,6.10
2016,03,30,03,06,6.20
2016,03,30,03,07,6.20
2016,03,30,03,08,6.20
2016,03,30,03,09,6.20
2016,03,30,03,10,6.20
2016,03,30,03,11,6.20
2016,03,30,03,12,6.20
2016,03,30,03,13,6.20
2016,03,30,03,14,6.20
2016,03,30,03,15,6.20
2016,03,30,03,16,6.20
2016,03,30,03,17,6.20
2016,03,30,03,18,6.20
2016,03,30,03,19,6.20
2016,03,30,03,20,6.20
2016,03,30,03,21,6.10
2016,03,30,03,22,6.10
2016,03,30,03,23,6.10
2016,03,30,03,24,6.10
2016,03,30,03,25,6.00
2016,03,30,03,26,6.00
2016,03,30,03,27,6.00
2016,03,30,03,28,5.90
2016,03,30,03,29,5.90
2016,03,30,03,30,5.90
2016,03,30,03,31,5.80
2016,03,30,03,32,5.80
2016,03,30,03,33,5.70
2016,03,30,03,34,5.70
2016,03,30,03,35,5.70
2016,03,30,03,36,5.70
2016,03,30,03,37,5.70
2016,03,30,03,38,5.60
2016,03,30,03,39,5.60
2016,03,30,03,40,5.50
2016,03,30,03,41,5.50
2016,03,30,03,42,5.50
2016,03,30,03,43,5.50
2016,03,30,03,44,5.40
2016,03,30,03,45,5.50
2016,03,30,03,46,5.50
2016,03,30,03,47,5.50
2016,03,30,03,48,5.50
2016,03,30,03,49,5.50
2016,03,30,03,50,5.60
2016,03,30,03,51,5.60
2016,03,30,03,52,5.60
2016,03,30,03,53,5.60
2016,03,30,03,54,5.60
2016,03,30,03,55,5.60
2016,03,30,03,56,5.60
2016,03,30,03,57,5.70
2016,03,30,03,58,5.70
2016,03,30,03,59,5.70
2016,03,30,04,00,5.70
2016,03,30,04,01,5.70
2016,03,30,04,02,5.70
2016,03,30,04,03,5.70
2016,03,30,04,04,5.80
2016,03,30,04,05,5.80
2016,03,30,04,06,5.90
2016,03,30,04,07,5.90
2016,03,30,04,08,6.00
2016,03,30,04,09,6.00
2016,03,30,04,10,6.00
2016,03,30,04,11,6.10
2016,03,30,04,12,6.10
2016,03,30,04,13,6.10
2016,03,30,04,14,6.20
2016,03,30,04,15,6.20
2016,03,30,04,16,6.20
2016,03,30,04,17,6.20
2016,03,30,04,18,6.20
2016,03,30,04,19,6.10
2016,03,30,04,20,6.10
2016,03,30,04,21,6.00
2016,03,30,04,22,6.00
2016,03,30,04,23,6.00
2016,03,30,04,24,5.90
2016,03,30,04,25,5.90
2016,03,30,04,26,5.90
2016,03,30,04,27,5.90
2016,03,30,04,28,5.80
2016,03,30,04,29,5.80
2016,03,30,04,30,5.80
2016,03,30,04,31,5.80
2016,03,30,04,32,5.80
2016,03,30,04,33,5.80
2016,03,30,04,34,5.80
2016,03,30,04,35,5.80
2016,03,30,04,36,5.80
2016,03,30,04,37,5.80
2016,03,30,04,38,5.80
2016,03,30,04,39,5.80
2016,03,30,04,40,5.80
2016,03,30,04,41,5.80
2016,03,30,04,42,5.80
2016,03,30,04,43,5.90
2016,03,30,04,44,5.90
2016,03,30,04,45,6.00
2016,03,30,04,46,6.00
2016,03,30,04,47,6.10
2016,03,30,04,48,6.10
2016,03,30,04,49,6.20
2016,03,30,04,50,6.20
2016,03,30,04,51,6.20
2016,03,30,04,52,6.10
2016,03,30,04,53,6.10
2016,03,30,04,54,6.00
2016,03,30,04,55,6.00
2016,03,30,04,56,6.00
2016,03,30,04,57,6.00
2016,03,30,04,58,5.90
2016,03,30,04,59,5.90
2016,03,30,05,00,6.00
2016,03,30,05,01,6.00
2016,03,30,05,02,6.00
2016,03,30,05,03,6.10
2016,03,30,05,04,6.10
2016,03,30,05,05,6.20
2016,03,30,05,06,6.30
2016,03,30,05,07,6.30
2016,03,30,05,08,6.40
2016,03,30,05,09,6.40
2016,03,30,05,10,6.40
2016,03,30,05,11,6.40
2016,03,30,05,12,6.40
2016,03,30,05,13,6.40
2016,03,30,05,14,6.40
2016,03,30,05,15,6.40
2016,03,30,05,16,6.40
2016,03,30,05,17,6.30
2016,03,30,05,18,6.30
2016,03,30,05,19,6.30
2016,03,30,05,20,6.30
2016,03,30,05,21,6.20
2016,03,30,05,22,6.20
2016,03,30,05,23,6.20
2016,03,30,05,24,6.20
2016,03,30,05,25,6.30
2016,03,30,05,26,6.30
2016,03,30,05,27,6.30
2016,03,30,05,28,6.40
2016,03,30,05,29,6.40
2016,03,30,05,30,6.50
2016,03,30,05,31,6.60
2016,03,30,05,32,6.70
2016,03,30,05,33,6.80
2016,03,30,05,34,6.80
2016,03,30,05,35,6.90
2016,03,30,05,36,6.90
2016,03,30,05,37,6.90
2016,03,30,05,38,7.00
2016,03,30,05,39,7.00
2016,03,30,05,40,7.00
2016,03,30,05,41,7.00
2016,03,30,05,42,7.00
2016,03,30,05,43,7.00
2016,03,30,05,44,7.00
2016,03,30,05,45,7.00
2016,03,30,05,46,7.00
2016,03,30,05,47,7.00
2016,03,30,05,48,7.00
2016,03,30,05,49,7.00
2016,03,30,05,50,6.90
2016,03,30,05,51,6.90
2016,03,30,05,52,6.90
2016,03,30,05,53,6.90
2016,03,30,05,54,6.90
2016,03,30,05,55,6.90
2016,03,30,05,56,6.90
2016,03,30,05,57,6.90
2016,03,30,05,58,6.90
2016,03,30,05,59,6.80
2016,03,30,06,00,6.80
2016,03,30,06,01,6.80
2016,03,30,06,02,6.80
2016,03,30,06,03,6.70
2016,03,30,06,04,6.60
2016,03,30,06,05,6.60
2016,03,30,06,06,6.50
2016,03,30,06,07,6.40
2016,03,30,06,08,6.40
2016,03,30,06,09,6.30
2016,03,30,06,10,6.30
2016,03,30,06,11,6.20
2016,03,30,06,12,6.20
2016,03,30,06,13,6.20
2016,03,30,06,14,6.20
2016,03,30,06,15,6.10
2016,03,30,06,16,6.10
2016,03,30,06,17,6.00
2016,03,30,06,18,6.00
2016,03,30,06,19,6.00
2016,03,30,06,20,5.90
2016,03,30,06,21,5.90
2016,03,30,06,22,5.80
2016,03,30,06,23,5.80
2016,03,30,06,24,5.80
2016,03,30,06,25,5.70
2016,03,30,06,26,5.70
2016,03,30,06,27,5.70
2016,03,30,06,28,5.70
2016,03,30,06,29,5.60
2016,03,30,06,30,5.60
2016,03,30,06,31,5.60
2016,03,30,06,32,5.50
2016,03,30,06,33,5.50
2016,03,30,06,34,5.50
2016,03,30,06,35,5.40
2016,03,30,06,36,5.40
2016,03,30,06,37,5.40
2016,03,30,06,38,5.40
2016,03,30,06,39,5.40
2016,03,30,06,40,5.30
2016,03,30,06,41,5.40
2016,03,30,06,42,5.40
2016,03,30,06,43,5.40
2016,03,30,06,44,5.40
2016,03,30,06,45,5.40
2016,03,30,06,46,5.50
2016,03,30,06,47,5.50
2016,03,30,06,48,5.50
2016,03,30,06,49,5.50
2016,03,30,06,50,5.50
2016,03,30,06,51,5.50
2016,03,30,06,52,5.50
2016,03,30,06,53,5.60
2016,03,30,06,54,5.60
2016,03,30,06,55,5.60
2016,03,30,06,56,5.60
2016,03,30,06,57,5.60
2016,03,30,06,58,5.60
2016,03,30,06,59,5.60
2016,03,30,07,00,5.60
2016,03,30,07,01,5.60
2016,03,30,07,02,5.60
2016,03,30,07,03,5.60
2016,03,30,07,04,5.50
2016,03,30,07,05,5.50
2016,03,30,07,06,5.50
2016,03,30,07,07,5.50
2016,03,30,07,08,5.50
2016,03,30,07,09,5.50
2016,03,30,07,10,5.50
2016,03,30,07,11,5.40
2016,03,30,07,12,5.40
2016,03,30,07,13,5.40
2016,03,30,07,14,5.40
2016,03,30,07,15,5.40
2016,03,30,07,16,5.40
2016,03,30,07,17,5.50
2016,03,30,07,18,5.50
2016,03,30,07,19,5.50
2016,03,30,07,20,5.50
2016,03,30,07,21,5.60
2016,03,30,07,22,5.60
2016,03,30,07,23,5.60
2016,03,30,07,24,5.60
2016,03,30,07,25,5.70
2016,03,30,07,26,5.70
2016,03,30,07,27,5.70
2016,03,30,07,28,5.70
2016,03,30,07,29,5.70
2016,03,30,07,30,5.70
2016,03,30,07,31,5.70
2016,03,30,07,32,5.70
2016,03,30,07,33,5.70
2016,03,30,07,34,5.70
2016,03,30,07,35,5.70
2016,03,30,07,36,5.70
2016,03,30,07,37,5.70
2016,03,30,07,38,5.70
2016,03,30,07,39,5.70
2016,03,30,07,40,5.70
2016,03,30,07,41,5.70
2016,03,30,07,42,5.70
2016,03,30,07,43,5.70
2016,03,30,07,44,5.70
2016,03,30,07,45,5.70
2016,03,30,07,46,5.60
2016,03,30,07,47,5.60
2016,03,30,07,48,5.60
2016,03,30,07,49,5.60
2016,03,30,07,50,5.60
2016,03,30,07,51,5.60
2016,03,30,07,52,5.60
2016,03,30,07,53,5.60
2016,03,30,07,54,5.70
2016,03,30,07,55,5.70
2016,03,30,07,56,5.70
2016,03,30,07,57,5.70
2016,03,30,07,58,5.70
2016,03,30,07,59,5.70
2016,03,30,08,00,5.80
2016,03,30,08,01,5.80
2016,03,30,08,02,5.90
2016,03,30,08,03,6.00
2016,03,30,08,04,6.00
2016,03,30,08,05,6.10
2016,03,30,08,06,6.10
2016,03,30,08,07,6.20
2016,03,30,08,08,6.20
2016,03,30,08,09,6.20
2016,03,30,08,10,6.30
2016,03,30,08,11,6.30
2016,03,30,08,12,6.30
2016,03,30,08,13,6.30
2016,03,30,08,14,6.40
2016,03,30,08,15,6.40
2016,03,30,08,16,6.40
2016,03,30,08,17,6.40
2016,03,30,08,18,6.40
2016,03,30,08,19,6.50
2016,03,30,08,20,6.60
2016,03,30,08,21,6.60
2016,03,30,08,22,6.60
2016,03,30,08,23,6.70
2016,03,30,08,24,6.70
2016,03,30,08,25,6.80
2016,03,30,08,26,6.80
2016,03,30,08,27,6.80
2016,03,30,08,28,6.80
2016,03,30,08,29,6.80
2016,03,30,08,30,6.80
2016,03,30,08,31,6.90
2016,03,30,08,32,7.00
2016,03,30,08,33,7.00
2016,03,30,08,34,7.10
2016,03,30,08,35,7.20
2016,03,30,08,36,7.30
2016,03,30,08,37,7.40
2016,03,30,08,38,7.50
2016,03,30,08,39,7.50
2016,03,30,08,40,7.60
2016,03,30,08,41,7.70
2016,03,30,08,42,7.80
2016,03,30,08,43,7.80
2016,03,30,08,44,7.90
2016,03,30,08,45,8.00
2016,03,30,08,46,8.10
2016,03,30,08,47,8.20
2016,03,30,08,48,8.30
2016,03,30,08,49,8.40
2016,03,30,08,50,8.50
2016,03,30,08,51,8.70
2016,03,30,08,52,8.80
2016,03,30,08,53,8.90
2016,03,30,08,54,9.00
2016,03,30,08,55,9.10
2016,03,30,08,56,9.30
2016,03,30,08,57,9.40
2016,03,30,08,58,9.60
2016,03,30,08,59,9.70
2016,03,30,09,00,9.90
2016,03,30,09,01,10.00
2016,03,30,09,02,10.20
2016,03,30,09,03,10.30
2016,03,30,09,04,10.40
2016,03,30,09,05,10.50
2016,03,30,09,06,10.70
2016,03,30,09,07,10.80
2016,03,30,09,08,10.90
2016,03,30,09,09,11.10
2016,03,30,09,10,11.20
2016,03,30,09,11,11.40
2016,03,30,09,12,11.50
2016,03,30,09,13,11.60
2016,03,30,09,14,11.70
2016,03,30,09,15,11.80
2016,03,30,09,16,11.90
2016,03,30,09,17,12.00
2016,03,30,09,18,12.10
2016,03,30,09,19,12.10
2016,03,30,09,20,12.20
2016,03,30,09,21,12.30
2016,03,30,09,22,12.30
2016,03,30,09,23,12.30
2016,03,30,09,24,12.40
2016,03,30,09,25,12.40
2016,03,30,09,26,12.50
2016,03,30,09,27,12.60
2016,03,30,09,28,12.70
2016,03,30,09,29,12.80
2016,03,30,09,30,12.80
2016,03,30,09,31,12.90
2016,03,30,09,32,13.00
2016,03,30,09,33,13.00
2016,03,30,09,34,13.10
2016,03,30,09,35,13.20
2016,03,30,09,36,13.30
2016,03,30,09,37,13.30
2016,03,30,09,38,13.40
2016,03,30,09,39,13.50
2016,03,30,09,40,13.60
2016,03,30,09,41,13.70
2016,03,30,09,42,13.80
2016,03,30,09,43,13.90
2016,03,30,09,44,13.90
2016,03,30,09,45,14.00
2016,03,30,09,46,14.00
2016,03,30,09,47,14.10
2016,03,30,09,48,14.10
2016,03,30,09,49,14.20
2016,03,30,09,50,14.20
2016,03,30,09,51,14.20
2016,03,30,09,52,14.30
2016,03,30,09,53,14.40
2016,03,30,09,54,14.50
2016,03,30,09,55,14.50
2016,03,30,09,56,14.60
2016,03,30,09,57,14.60
2016,03,30,09,58,14.70
2016,03,30,09,59,14.70
2016,03,30,10,00,14.70
2016,03,30,10,01,14.70
2016,03,30,10,02,14.70
2016,03,30,10,03,14.70
2016,03,30,10,04,14.70
2016,03,30,10,05,14.80
2016,03,30,10,06,14.80
2016,03,30,10,07,14.80
2016,03,30,10,08,14.80
2016,03,30,10,09,14.80
2016,03,30,10,10,14.80
2016,03,30,10,11,14.90
2016,03,30,10,12,14.80
2016,03,30,10,13,14.80
2016,03,30,10,14,14.80
2016,03,30,10,15,14.80
2016,03,30,10,16,14.80
2016,03,30,10,17,14.80
2016,03,30,10,18,14.80
2016,03,30,10,19,14.90
2016,03,30,10,20,14.90
2016,03,30,10,21,15.00
2016,03,30,10,22,15.10
2016,03,30,10,23,15.20
2016,03,30,10,24,15.20
2016,03,30,10,25,15.30
2016,03,30,10,26,15.30
2016,03,30,10,27,15.30
2016,03,30,10,28,15.30
2016,03,30,10,29,15.30
2016,03,30,10,30,15.30
2016,03,30,10,31,15.30
2016,03,30,10,32,15.30
2016,03,30,10,33,15.30
2016,03,30,10,34,15.40
2016,03,30,10,35,15.50
2016,03,30,10,36,15.60
2016,03,30,10,37,15.70
2016,03,30,10,38,15.80
2016,03,30,10,39,15.80
2016,03,30,10,40,15.80
2016,03,30,10,41,15.80
2016,03,30,10,42,15.80
2016,03,30,10,43,15.80
2016,03,30,10,44,15.90
2016,03,30,10,45,15.90
2016,03,30,10,46,16.00
2016,03,30,10,47,16.10
2016,03,30,10,48,16.10
2016,03,30,10,49,16.10
2016,03,30,10,50,16.20
2016,03,30,10,51,16.30
2016,03,30,10,52,16.30
2016,03,30,10,53,16.40
2016,03,30,10,54,16.40
2016,03,30,10,55,16.30
2016,03,30,10,56,16.30
2016,03,30,10,57,16.20
2016,03,30,10,58,16.00
2016,03,30,10,59,15.90
2016,03,30,11,00,15.80
2016,03,30,11,01,15.80
2016,03,30,11,02,15.80
2016,03,30,11,03,16.00
2016,03,30,11,04,16.10
2016,03,30,11,05,16.10
2016,03,30,11,06,16.20
2016,03,30,11,07,16.30
2016,03,30,11,08,16.40
2016,03,30,11,09,16.40
2016,03,30,11,10,16.40
2016,03,30,11,11,16.40
2016,03,30,11,12,16.40
2016,03,30,11,13,16.40
2016,03,30,11,14,16.30
2016,03,30,11,15,16.20
2016,03,30,11,16,16.00
2016,03,30,11,17,15.80
2016,03,30,11,18,15.80
2016,03,30,11,19,15.90
2016,03,30,11,20,15.90
2016,03,30,11,21,15.90
2016,03,30,11,22,15.80
2016,03,30,11,23,15.80
2016,03,30,11,24,15.80
2016,03,30,11,25,15.80
2016,03,30,11,26,15.90
2016,03,30,11,27,15.80
2016,03,30,11,28,15.80
2016,03,30,11,29,15.80
2016,03,30,11,30,15.80
2016,03,30,11,31,15.80
2016,03,30,11,32,15.80
2016,03,30,11,33,15.80
2016,03,30,11,34,15.80
2016,03,30,11,35,15.80
2016,03,30,11,36,15.80
2016,03,30,11,37,15.60
2016,03,30,11,38,15.60
2016,03,30,11,39,15.50
2016,03,30,11,40,15.50
2016,03,30,11,41,15.50
2016,03,30,11,42,15.60
2016,03,30,11,43,15.50
2016,03,30,11,44,15.50
2016,03,30,11,45,15.50
2016,03,30,11,46,15.40
2016,03,30,11,47,15.30
2016,03,30,11,48,15.30
2016,03,30,11,49,15.30
2016,03,30,11,50,15.30
2016,03,30,11,51,15.40
2016,03,30,11,52,15.50
2016,03,30,11,53,15.60
2016,03,30,11,54,15.60
2016,03,30,11,55,15.60
2016,03,30,11,56,15.50
2016,03,30,11,57,15.50
2016,03,30,11,58,15.50
2016,03,30,11,59,15.60
2016,03,30,12,00,15.70
2016,03,30,12,01,15.80
2016,03,30,12,02,15.80
2016,03,30,12,03,16.00
2016,03,30,12,04,16.10
2016,03,30,12,05,16.20
2016,03,30,12,06,16.20
2016,03,30,12,07,16.20
2016,03,30,12,08,16.20
2016,03,30,12,09,16.20
2016,03,30,12,10,16.30
2016,03,30,12,11,16.20
2016,03,30,12,12,16.20
2016,03,30,12,13,16.20
2016,03,30,12,14,16.30
2016,03,30,12,15,16.30
2016,03,30,12,16,16.30
2016,03,30,12,17,16.40
2016,03,30,12,18,16.50
2016,03,30,12,19,16.70
2016,03,30,12,20,16.70
2016,03,30,12,21,16.70
2016,03,30,12,22,16.70
2016,03,30,12,23,16.70
2016,03,30,12,24,16.70
2016,03,30,12,25,16.70
2016,03,30,12,26,16.70
2016,03,30,12,27,16.70
2016,03,30,12,28,16.60
2016,03,30,12,29,16.50
2016,03,30,12,30,16.40
2016,03,30,12,31,16.30
2016,03,30,12,32,16.20
2016,03,30,12,33,16.20
2016,03,30,12,34,16.20
2016,03,30,12,35,16.20
2016,03,30,12,36,16.20
2016,03,30,12,37,16.30
2016,03,30,12,38,16.30
2016,03,30,12,39,16.20
2016,03,30,12,40,16.10
2016,03,30,12,41,16.20
2016,03,30,12,42,16.30
2016,03,30,12,43,16.40
2016,03,30,12,44,16.50
2016,03,30,12,45,16.70
2016,03,30,12,46,16.80
2016,03,30,12,47,16.90
2016,03,30,12,48,16.90
2016,03,30,12,49,16.90
2016,03,30,12,50,16.90
2016,03,30,12,51,16.90
2016,03,30,12,52,17.00
2016,03,30,12,53,17.00
2016,03,30,12,54,17.00
2016,03,30,12,55,16.90
2016,03,30,12,56,16.70
2016,03,30,12,57,16.60
2016,03,30,12,58,16.40
2016,03,30,12,59,16.50
2016,03,30,13,00,16.60
2016,03,30,13,01,16.60
2016,03,30,13,02,16.70
2016,03,30,13,03,16.70
2016,03,30,13,04,16.80
2016,03,30,13,05,16.90
2016,03,30,13,06,16.90
2016,03,30,13,07,17.00
2016,03,30,13,08,17.10
2016,03,30,13,09,17.10
2016,03,30,13,10,16.90
2016,03,30,13,11,16.80
2016,03,30,13,12,16.70
2016,03,30,13,13,16.70
2016,03,30,13,14,16.70
2016,03,30,13,15,16.70
2016,03,30,13,16,16.70
2016,03,30,13,17,16.80
2016,03,30,13,18,16.90
2016,03,30,13,19,17.00
2016,03,30,13,20,17.10
2016,03,30,13,21,17.20
2016,03,30,13,22,17.20
2016,03,30,13,23,17.10
2016,03,30,13,24,16.90
2016,03,30,13,25,16.90
2016,03,30,13,26,16.90
2016,03,30,13,27,16.90
2016,03,30,13,28,16.80
2016,03,30,13,29,16.70
2016,03,30,13,30,16.70
2016,03,30,13,31,16.70
2016,03,30,13,32,16.70
2016,03,30,13,33,16.70
2016,03,30,13,34,16.80
2016,03,30,13,35,16.80
2016,03,30,13,36,16.90
2016,03,30,13,37,17.10
2016,03,30,13,38,17.20
2016,03,30,13,39,17.40
2016,03,30,13,40,17.60
2016,03,30,13,41,17.70
2016,03,30,13,42,17.90
2016,03,30,13,43,18.00
2016,03,30,13,44,18.10
2016,03,30,13,45,18.20
2016,03,30,13,46,18.10
2016,03,30,13,47,18.00
2016,03,30,13,48,17.80
2016,03,30,13,49,17.60
2016,03,30,13,50,17.40
2016,03,30,13,51,17.30
2016,03,30,13,52,17.30
2016,03,30,13,53,17.30
2016,03,30,13,54,17.30
2016,03,30,13,55,17.30
2016,03,30,13,56,17.20
2016,03,30,13,57,17.00
2016,03,30,13,58,17.00
2016,03,30,13,59,16.80
2016,03,30,14,00,16.70
2016,03,30,14,01,16.60
2016,03,30,14,02,16.60
2016,03,30,14,03,16.70
2016,03,30,14,04,16.70
2016,03,30,14,05,16.70
2016,03,30,14,06,16.70
2016,03,30,14,07,16.70
2016,03,30,14,08,16.70
2016,03,30,14,09,16.80
2016,03,30,14,10,16.80
2016,03,30,14,11,16.80
2016,03,30,14,12,16.90
2016,03,30,14,13,16.90
2016,03,30,14,14,16.90
2016,03,30,14,15,16.90
2016,03,30,14,16,16.70
2016,03,30,14,17,16.60
2016,03,30,14,18,16.60
2016,03,30,14,19,16.50
2016,03,30,14,20,16.40
2016,03,30,14,21,16.40
2016,03,30,14,22,16.30
2016,03,30,14,23,16.30
2016,03,30,14,24,16.30
2016,03,30,14,25,16.20
2016,03,30,14,26,16.30
2016,03,30,14,27,16.30
2016,03,30,14,28,16.30
2016,03,30,14,29,16.30
2016,03,30,14,30,16.30
2016,03,30,14,31,16.40
2016,03,30,14,32,16.50
2016,03,30,14,33,16.60
2016,03,30,14,34,16.60
2016,03,30,14,35,16.70
2016,03,30,14,36,16.70
2016,03,30,14,37,16.80
2016,03,30,14,38,16.90
2016,03,30,14,39,16.90
2016,03,30,14,40,16.80
2016,03,30,14,41,16.80
2016,03,30,14,42,16.80
2016,03,30,14,43,16.90
2016,03,30,14,44,16.80
2016,03,30,14,45,16.80
2016,03,30,14,46,16.80
2016,03,30,14,47,16.80
2016,03,30,14,48,16.90
2016,03,30,14,49,16.90
2016,03,30,14,50,17.00
2016,03,30,14,51,17.20
2016,03,30,14,52,17.40
2016,03,30,14,53,17.50
2016,03,30,14,54,17.60
2016,03,30,14,55,17.70
2016,03,30,14,56,17.70
2016,03,30,14,57,17.70
2016,03,30,14,58,17.70
2016,03,30,14,59,17.70
2016,03,30,15,00,17.70
2016,03,30,15,01,17.70
2016,03,30,15,02,17.70
2016,03,30,15,03,17.70
2016,03,30,15,04,17.60
2016,03,30,15,05,17.50
2016,03,30,15,06,17.50
2016,03,30,15,07,17.40
2016,03,30,15,08,17.40
2016,03,30,15,09,17.20
2016,03,30,15,10,17.20
2016,03,30,15,11,17.30
2016,03,30,15,12,17.30
2016,03,30,15,13,17.30
2016,03,30,15,14,17.30
2016,03,30,15,15,17.30
2016,03,30,15,16,17.20
2016,03,30,15,17,17.00
2016,03,30,15,18,16.90
2016,03,30,15,19,16.90
2016,03,30,15,20,17.00
2016,03,30,15,21,17.10
2016,03,30,15,22,17.10
2016,03,30,15,23,17.00
2016,03,30,15,24,17.10
2016,03,30,15,25,17.30
2016,03,30,15,26,17.40
2016,03,30,15,27,17.50
2016,03,30,15,28,17.60
2016,03,30,15,29,17.70
2016,03,30,15,30,17.80
2016,03,30,15,31,17.90
2016,03,30,15,32,18.00
2016,03,30,15,33,18.10
2016,03,30,15,34,18.10
2016,03,30,15,35,18.20
2016,03,30,15,36,18.20
2016,03,30,15,37,18.20
2016,03,30,15,38,18.00
2016,03,30,15,39,17.90
2016,03,30,15,40,17.80
2016,03,30,15,41,17.80
2016,03,30,15,42,17.90
2016,03,30,15,43,17.90
2016,03,30,15,44,17.90
2016,03,30,15,45,18.10
2016,03,30,15,46,18.10
2016,03,30,15,47,18.20
2016,03,30,15,48,18.30
2016,03,30,15,49,18.40
2016,03,30,15,50,18.40
2016,03,30,15,51,18.40
2016,03,30,15,52,18.40
2016,03,30,15,53,18.30
2016,03,30,15,54,18.30
2016,03,30,15,55,18.40
2016,03,30,15,56,18.30
2016,03,30,15,57,18.20
2016,03,30,15,58,18.20
2016,03,30,15,59,18.20
2016,03,30,16,00,18.20
2016,03,30,16,01,18.40
2016,03,30,16,02,18.50
2016,03,30,16,03,18.60
2016,03,30,16,04,18.60
2016,03,30,16,05,18.80
2016,03,30,16,06,18.90
2016,03,30,16,07,19.00
2016,03,30,16,08,19.10
2016,03,30,16,09,19.20
2016,03,30,16,10,19.30
2016,03,30,16,11,19.30
2016,03,30,16,12,19.30
2016,03,30,16,13,19.20
2016,03,30,16,14,19.20
2016,03,30,16,15,19.20
2016,03,30,16,16,19.20
2016,03,30,16,17,19.10
2016,03,30,16,18,19.10
2016,03,30,16,19,19.20
2016,03,30,16,20,19.30
2016,03,30,16,21,19.20
2016,03,30,16,22,19.10
2016,03,30,16,23,19.10
2016,03,30,16,24,19.10
2016,03,30,16,25,19.00
2016,03,30,16,26,19.00
2016,03,30,16,27,18.90
2016,03,30,16,28,18.90
2016,03,30,16,29,18.90
2016,03,30,16,30,18.90
2016,03,30,16,31,18.90
2016,03,30,16,32,18.90
2016,03,30,16,33,18.90
2016,03,30,16,34,18.80
2016,03,30,16,35,18.80
2016,03,30,16,36,18.80
2016,03,30,16,37,18.80
2016,03,30,16,38,19.00
2016,03,30,16,39,19.10
2016,03,30,16,40,19.10
2016,03,30,16,41,19.10
2016,03,30,16,42,19.30
2016,03,30,16,43,19.30
2016,03,30,16,44,19.30
2016,03,30,16,45,19.10
2016,03,30,16,46,18.90
2016,03,30,16,47,18.70
2016,03,30,16,48,18.50
2016,03,30,16,49,18.50
2016,03,30,16,50,18.50
2016,03,30,16,51,18.60
2016,03,30,16,52,18.60
2016,03,30,16,53,18.70
2016,03,30,16,54,18.80
2016,03,30,16,55,18.90
2016,03,30,16,56,18.90
2016,03,30,16,57,18.80
2016,03,30,16,58,18.80
2016,03,30,16,59,18.70
2016,03,30,17,00,18.70
2016,03,30,17,01,18.70
2016,03,30,17,02,18.60
2016,03,30,17,03,18.50
2016,03,30,17,04,18.40
2016,03,30,17,05,18.30
2016,03,30,17,06,18.30
2016,03,30,17,07,18.30
2016,03,30,17,08,18.30
2016,03,30,17,09,18.30
2016,03,30,17,10,18.30
2016,03,30,17,11,18.40
2016,03,30,17,12,18.40
2016,03,30,17,13,18.50
2016,03,30,17,14,18.60
2016,03,30,17,15,18.60
2016,03,30,17,16,18.70
2016,03,30,17,17,18.80
2016,03,30,17,18,18.90
2016,03,30,17,19,18.90
2016,03,30,17,20,18.90
2016,03,30,17,21,18.90
2016,03,30,17,22,18.90
2016,03,30,17,23,18.90
2016,03,30,17,24,18.90
2016,03,30,17,25,18.90
2016,03,30,17,26,18.90
2016,03,30,17,27,18.90
2016,03,30,17,28,18.90
2016,03,30,17,29,18.90
2016,03,30,17,30,18.90
2016,03,30,17,31,18.90
2016,03,30,17,32,18.80
2016,03,30,17,33,18.70
2016,03,30,17,34,18.60
2016,03,30,17,35,18.60
2016,03,30,17,36,18.60
2016,03,30,17,37,18.60
2016,03,30,17,38,18.60
2016,03,30,17,39,18.60
2016,03,30,17,40,18.50
2016,03,30,17,41,18.40
2016,03,30,17,42,18.30